铱星星座 126星 (IRIDIUM 126)

导读

IRIDIUM 126是美国于2017年6月25日发射的铱星系统卫星,铱星系统是美国提供全球卫星语音通信和数据传输服务的低轨卫星星座,该卫星承担补充或替换星座中老旧卫星的作用,保障全球范围内个人通信、海事、航空等领域持续稳定的卫星通信服务,进一步完善铱星星座的全球覆盖能力。

Basic Information
目录编号:
42809
目录名称:
IRIDIUM 126
国际标识:
2017-039G
轨道中心:
EARTH
卫星名称:
铱星星座 126星
卫星全名:
铱星星座 126星 (IRIDIUM 126)
卫星状态:
在轨 (已飞行3365 天)
发射日期:
2017-06-25 UTC
国别 :
美国 (US)
星等 :
--
Orbit Information
数据来源 国际轨道数据 AOE轨道数据
星历时间 2026-09-10T22:45:43+0800
14小时前
查看轨道信息
2026-09-11T01:00:00+0800
12小时前
查看轨道信息
半长轴 7155.806km 7155.807km
偏心率 0.0002377 0.0002426
轨道倾角 86.399° 86.400°
近地点辐角 94.683° 98.938°
升交点赤经 317.955° 317.917°
平近点角 265.464° 22.400°
近地点 775.968km 775.934km
远地点 779.37km 779.406km
周期 100.403分钟 100.403分钟
每日圈数 14.342174 14.34217
Detailed Information
平衡模式:
三轴稳定
覆盖范围:
全球
运营商:
铱星通信公司
运营商所在国:
美国
制造商(研发单位):
阿莱尼亚宇航公司
制造商所在国:
意大利
使用方式:
暂无
Satellite Introduction
铱星(Iridium)是由共66个运作中的通信卫星组成的卫星通信系统。这个系统原本规划77个通信卫星,所以用原子序数为77的铱元素来命名。铱卫星允许人们使用手持型电子设备进行全球性的语音及数据通讯。该卫星仍在工作。
2D Orbit Map
3D Orbit Map
Orbit Altitude Analysis Chart
Orbit Inclination Analysis Chart
Orbit Comprehensive Analysis Chart
View Comprehensive Chart
Conjunction Data List
Event ID Objects TCA Miss Dist (km) Collision Risk Probability Collision Risk Index (CRI) Action
CDM_260912-081402-606304-280927
OPAL (26063)
2026-09-12T
08:14:53+0000
0.964 km
远距离
2.678041E-5 中风险 0.64
CDM_260911-135603-632104-280926
2026-09-11T
13:56:35+0000
2.483 km
极远距离
1.769564E-6 低风险 0.4
CDM_260912-223104-280905-627224
2026-09-12T
22:31:49+0000
2.868 km
极远距离
7.394508E-7 极低风险 0.32
Miss Distance Evolution Trend with All Objects
Collision Probability Evolution Trend with All Objects